weather.gov     
National Weather Service

Terminal Aerodrome Forecast
NWS Homepage
This page is being discontinued on March 12, 2014.
The same data is available at this site. Please update your bookmarks.
Thank you, and we apologize for the inconvenience.
Please send an email to SR-SRH.Webmaster@noaa.gov with any concerns.


Current Version
Previous Version:    01  02  03  04  05  06  07  08  09  10  11  12  13  14  15  16  17  18  19  20  21  22  23  24  25  26  27  28  29  30  
   31  32  33  34  35  36  37  38  39  
[Printable]
465
FTUS41 KCLE 232300 CCA
TAFCAK
TAF COR
KCAK 232353Z 2400/2424 14012KT P6SM OVC060
     FM240100 14015KT 6SM -SHRA OVC045 WS020/18050KT
     FM240500 14018G28KT 4SM -SHRA SCT008 OVC012
      TEMPO 2405/2409 OVC008
     FM241100 18018G28KT P6SM VCSH SCT012 OVC030
     FM241800 22028G40KT P6SM OVC030
      TEMPO 2418/2420 3SM -SHRA=


U.S. Dept. of Commerce
NOAA National Weather Service
1325 East West Highway
Silver Spring, MD 20910
E-mail: w-nws.webmaster@noaa.gov
Page last modified: May 16, 2007
NATIONAL WEATHER SERVICE: for Safety, for Work, for Fun - FOR LIFE